Flag for Switzerland Weather past 2 weeks in Stans, Nidwalden, Switzerland

Now
65 °F

Mild.


Feels Like: 65 °F
Forecast: 56 / 72 °F
Wind: 9 mph from South

Location: Giswil

Current Time: Sep 20, 2014 at 10:33:50 PM

Latest Report: Sep 20, 2014 at 9:00 PM


Visibility: N/A

Pressure: 30.05 "Hg

Humidity: 71%

Dew point: 55 °F

Location of StansLocation

Historic Weather in Stans — Graph

°F

Stans temperature yesterday

Maximum temperature yesterday: 74 °F (at 4:00 PM)
Minimum temperature yesterday: 53 °F (at 1:00 AM)
Average temperature yesterday: 62 °F

Past Weeks' High & Low Weather Summary

 TemperatureHumidityPressure
High76 °F (Sep 7, 4:00 PM)100% (Sep 6, 3:00 AM)30.14 "Hg (Sep 6, 3:00 AM)
Low49 °F (Sep 16, 7:00 AM)52% (Sep 16, 1:00 PM)29.81 "Hg (Sep 17, 5:00 PM)
Average61 °F85%29.99 "Hg
* Reported Sep 5 9:00 PM — Sep 20 9:00 PM, Stans, Weather by CustomWeather, © 2014

Note: Actual official high and low records may vary slightly from our data, if they occured in-between our weather recording intervals... More about our weather records

Advertising

Stans weather history for previous 24 hours

 ConditionsComfort  
Time TempWeatherWind HumidityBarometerVisibility
9:00 PM
Sep 20
65 °FMild.9 mph71%30.05 "HgN/A
8:00 PM65 °FMild.9 mph74%30.03 "HgN/A
7:00 PM66 °FMild.12 mph76%30.01 "HgN/A
3:00 PM72 °FMild.1 mph64%29.98 "HgN/A
2:00 PM70 °FMild.1 mph66%29.99 "HgN/A
1:00 PM69 °FMild.1 mph69%30.00 "HgN/A
12:00 PM67 °FMild.2 mph75%30.01 "HgN/A
11:00 AM65 °FMild.3 mph77%30.02 "HgN/A
10:00 AM62 °FCool.1 mph92%30.03 "HgN/A
9:00 AM59 °FCool.1 mph97%30.04 "HgN/A
8:00 AM57 °FCool.1 mph99%30.04 "HgN/A
7:00 AM54 °FCool.1 mph100%30.05 "HgN/A
6:00 AM54 °FCool.1 mph99%30.03 "HgN/A
5:00 AM56 °FCool.3 mph98%30.03 "HgN/A
4:00 AM55 °FCool.2 mph99%30.03 "HgN/A
3:00 AM56 °FCool.1 mph99%30.02 "HgN/A
2:00 AM57 °FCool.1 mph99%30.03 "HgN/A
1:00 AM60 °FCool.1 mph97%30.03 "HgN/A
12:00 AM62 °FCool.2 mph97%30.02 "HgN/A
10:00 PM
Sep 19
62 °FCool.2 mph93%30.00 "HgN/A
Weather by CustomWeather, © 2014

See weather overviewHow to use our weather pages